Starlink 5024

operational
NORAD ID: 53901 Int'l Des: 2022-119 Owner: SPXS Country: US Constellation: starlink
LEOCIRCULAR

About Starlink 5024

Description loading...

Live Position

Loading 3D Globe...

Upcoming Passes

Altitude History

Altitude vs Time

uPlot chart will show altitude changes over time

Two-Line Element Set

1 53901U 22119R 25304.71582894 .00104432 00000-0 11924-2 0 9994
2 53901 53.2158 164.1537 0000899 151.9580 208.1484 15.61410658172482
Epoch: Oct 31, 2025 • Age: 5 hours

Current Status

Altitude 385.3 km
Velocity 7.68 km/s
Sub-Earth Point -2.50°S, 154.29°E
Launch Date Sep 24, 2022
Age 3 years
Type internet

Technical Details

Classification Payload
Mass 305.00 kg
Dry Mass 290.00 kg
Total Mass 305.00 kg
Length 0.20 m
Diameter 2.80 m
Span 9.00 m
Shape Box + pan
Manufacturer SPXS
Bus Type Starlink
Phase Status In Orbit
Owner/State SPXS/US

Large Constellations

Loading constellations...